Theta_e
348 348 351 358 358 359 360 364 364 365 365 365 366 365 365 365 365 365 366 367 367 366 366 366 366 365 366 365 366 365 364 364 364 364 364 363 363 363 363 363 363 362 362 362 362 361 361 361 361 361 361 361 361 360 359 360 359 360 359 361 359 359 359 360 357 357 359 360 359 359 359 359 361 361 360 360 360 360 360 360 360 359 359 360 361
346 349 351 355 358 359 361 364 365 365 366 366 367 366 366 366 366 366 366 366 366 366 366 365 365 365 365 365 364 364 363 363 364 363 363 363 362 363 363 362 362 362 361 361 361 361 361 360 361 361 361 361 361 360 361 360 359 359 359 359 360 359 360 359 357 357 358 359 360 358 357 359 360 360 360 360 361 360 361 361 362 360 359 361 361
349 351 352 356 357 362 363 364 365 366 366 366 367 367 367 366 366 366 366 366 366 366 365 365 364 365 365 364 363 363 363 363 363 363 362 362 362 362 362 362 361 361 362 361 360 360 360 360 360 360 361 361 360 360 360 359 359 359 359 359 359 358 359 358 357 358 360 359 360 359 358 359 359 358 359 360 360 360 360 361 361 361 358 360 360
349 351 352 357 360 364 364 364 366 366 366 366 366 366 366 366 366 366 365 365 365 365 365 365 365 365 365 364 364 364 364 364 363 362 362 362 362 362 362 361 362 362 361 361 361 360 360 359 359 360 359 359 358 359 359 359 359 361 360 361 360 359 359 359 359 360 361 361 359 359 358 356 359 359 358 360 361 359 359 359 360 361 360 360 360
350 352 353 357 357 364 365 365 366 366 365 365 366 366 366 366 366 366 365 364 364 365 365 364 364 364 364 363 363 364 364 364 364 363 362 362 362 362 362 362 361 360 360 360 360 361 360 359 359 359 359 359 359 359 359 360 360 360 360 360 360 359 359 359 359 359 360 360 360 358 356 356 358 357 359 360 360 359 359 358 359 359 362 360 360
351 352 355 356 358 362 366 365 365 365 366 366 366 366 366 365 366 365 365 365 364 365 365 365 364 364 363 364 363 364 363 363 363 362 362 362 362 361 362 361 361 360 360 360 360 361 361 360 359 359 359 359 359 358 359 359 360 359 358 359 359 359 359 359 360 360 360 361 359 355 356 358 356 356 358 359 359 358 358 359 358 360 360 360 360
352 353 356 357 358 362 365 366 365 365 365 365 366 366 365 365 365 365 365 365 364 365 365 364 364 364 363 362 363 363 362 362 363 362 362 362 361 361 361 361 361 360 360 359 361 361 360 359 359 358 359 358 359 360 359 359 359 359 360 360 359 359 359 359 360 360 360 356 354 355 355 356 356 356 358 358 359 359 358 358 358 359 360 360 360
354 356 358 359 359 363 365 366 365 365 365 365 365 365 365 365 365 365 365 364 363 364 364 364 364 363 363 362 362 362 363 363 363 362 362 363 362 361 360 361 361 361 360 360 360 360 360 359 359 359 358 358 359 359 359 359 358 359 360 359 359 359 359 360 360 360 359 354 354 355 355 356 357 355 358 357 355 354 359 359 359 359 359 360 360
354 357 359 359 359 365 366 365 365 365 364 365 365 365 364 365 365 365 364 364 363 364 365 365 363 362 362 361 362 362 362 361 362 363 362 362 362 362 361 361 362 360 361 361 360 359 360 359 359 358 357 358 358 359 358 358 359 359 358 358 358 359 358 359 360 360 356 355 355 355 355 356 354 355 357 356 358 359 358 358 358 359 359 359 360
356 359 359 359 360 365 365 365 364 364 364 364 364 364 364 365 364 364 364 363 363 363 363 363 362 362 363 363 362 362 362 362 362 362 362 362 362 361 361 362 362 360 361 360 359 359 359 360 359 359 358 360 360 359 358 357 358 359 358 359 358 358 358 360 361 360 355 357 357 358 358 357 355 356 357 358 358 358 358 360 359 359 359 359 359
357 359 359 359 361 365 365 365 364 364 365 365 364 365 365 365 364 364 364 363 363 363 362 362 361 361 363 362 362 362 362 362 362 361 362 362 361 361 361 361 361 361 361 361 360 360 360 359 359 359 357 359 359 359 358 358 358 358 358 358 359 359 360 360 358 355 356 356 357 357 357 358 356 356 357 358 357 356 357 358 359 360 360 359 359
358 359 359 360 363 365 365 364 364 364 365 365 365 365 365 364 363 364 363 363 363 363 363 362 361 360 361 362 363 361 360 361 362 362 362 362 361 362 361 361 361 361 361 360 360 359 361 360 359 358 359 359 359 359 359 358 358 358 358 358 358 358 360 360 356 355 356 356 358 356 355 356 358 355 354 355 356 355 354 357 360 359 358 358 359
358 358 359 359 360 364 365 364 364 365 365 365 364 365 364 363 364 363 363 363 363 363 363 362 361 361 361 362 362 362 362 362 363 363 363 362 362 362 361 361 361 361 360 359 360 361 361 360 359 359 358 359 360 359 359 359 358 358 359 358 358 358 360 360 355 355 355 355 355 355 355 357 358 357 357 356 355 356 354 357 359 358 358 359 359
357 358 359 359 360 364 364 364 364 365 365 365 365 364 363 364 363 363 363 363 363 362 362 362 362 360 361 362 362 363 363 363 363 363 363 363 362 362 362 362 362 361 360 360 361 362 361 360 359 358 357 359 359 359 358 359 359 358 358 358 358 358 360 360 358 356 357 357 358 357 357 359 358 359 356 356 355 355 355 357 358 358 358 359 358
357 358 358 359 360 360 364 364 364 365 365 365 364 363 363 363 363 363 363 363 363 362 362 362 361 363 362 362 362 361 363 362 363 362 363 362 362 361 361 361 360 360 360 360 362 362 361 361 360 359 358 360 360 359 359 359 358 359 358 357 357 359 361 356 356 356 357 357 357 356 356 357 356 357 358 357 358 358 357 357 357 358 358 358 358
358 357 358 358 359 360 361 363 364 365 365 364 363 363 363 363 363 364 363 363 363 363 363 362 362 361 362 361 361 363 363 362 363 363 362 362 362 362 361 361 362 361 361 361 361 362 361 361 360 360 359 360 360 360 360 359 359 358 358 358 359 360 360 358 355 355 355 356 357 358 357 356 356 356 358 358 357 356 356 355 356 359 358 358 358
358 358 357 358 359 358 359 360 363 366 365 363 363 363 363 363 363 363 363 363 363 363 363 363 363 361 362 361 362 362 362 362 362 363 363 363 363 362 361 362 362 361 361 362 361 361 361 361 360 360 360 360 361 360 360 360 359 357 357 357 359 360 360 358 354 354 356 358 357 356 357 358 358 356 356 356 357 356 355 355 357 358 358 358 358
357 357 357 358 358 357 358 359 360 361 360 362 363 363 363 363 363 363 363 364 364 364 363 362 362 362 362 363 362 362 362 362 363 363 363 362 362 360 362 363 362 361 361 362 361 362 361 362 362 361 360 359 360 360 361 361 360 359 358 358 357 359 361 358 354 355 358 358 357 359 359 356 359 356 356 357 356 357 358 357 356 357 358 358 358
357 357 358 357 356 356 357 358 360 359 358 358 359 362 364 363 364 363 364 364 364 364 364 362 362 362 363 363 362 362 362 363 363 363 362 363 359 361 361 363 362 363 361 361 362 361 361 361 361 361 360 359 360 360 360 360 360 360 359 359 357 358 361 357 355 356 358 357 357 356 358 359 359 357 357 357 356 356 356 356 355 356 356 357 357
356 357 356 357 356 356 356 357 358 358 358 359 359 360 362 363 364 363 363 365 364 364 364 364 364 364 363 363 362 363 362 362 364 363 363 362 362 361 358 361 361 362 361 360 360 361 361 361 361 361 360 359 359 360 360 359 359 359 359 359 358 359 356 354 355 355 355 357 358 357 359 360 357 357 357 358 357 356 356 355 355 355 355 354 357
354 355 355 356 356 355 355 356 358 358 358 359 359 359 361 362 360 360 362 364 363 363 364 364 364 363 363 363 365 361 362 362 364 363 362 365 363 362 361 361 358 359 360 361 362 361 361 361 361 360 361 359 358 359 359 358 358 358 359 359 359 354 354 355 354 356 356 359 359 357 358 360 357 357 357 357 358 358 358 357 356 357 354 355 355
350 353 355 355 354 355 355 356 357 358 358 359 359 360 361 362 359 359 362 362 362 363 363 364 365 363 364 364 363 365 359 360 364 366 366 364 364 362 360 360 360 359 358 358 362 362 361 360 360 360 359 359 361 360 363 361 356 358 357 361 355 354 355 354 354 355 357 358 358 358 360 358 357 357 357 357 358 358 358 358 356 355 355 354 355
351 352 353 355 354 355 356 356 357 358 358 359 359 360 359 359 358 359 362 363 364 364 362 363 358 359 360 361 363 360 360 362 363 365 367 365 366 362 362 362 360 359 357 358 358 358 358 358 359 359 359 362 360 357 358 358 357 360 362 355 353 353 353 354 354 355 355 357 356 357 358 356 356 356 357 357 357 358 358 357 357 356 355 353 355
349 351 352 354 353 355 356 357 357 358 358 357 358 359 359 358 358 358 359 360 360 360 359 357 357 358 358 359 359 361 360 359 365 365 364 366 362 363 362 362 361 361 360 363 365 364 362 364 360 367 364 362 357 359 357 357 358 357 358 354 352 353 353 353 355 354 355 357 355 357 357 356 356 356 356 357 357 357 357 357 356 357 357 356 355
350 351 353 352 353 354 356 356 359 359 357 357 358 358 358 357 357 357 357 358 357 357 357 355 356 356 357 359 358 361 358 358 357 361 359 360 358 357 358 358 357 360 364 356 357 359 359 357 355 359 356 361 358 356 356 357 360 358 358 355 351 352 353 355 354 354 354 357 356 358 357 356 356 356 357 356 357 357 357 356 356 356 357 356 355
351 349 350 352 352 355 356 357 358 359 358 357 357 361 360 356 356 356 356 356 355 355 355 355 355 355 355 359 362 359 357 357 356 357 358 357 357 356 355 356 356 358 360 355 354 357 356 355 357 358 356 356 357 356 357 358 357 356 357 356 351 352 353 353 353 354 354 356 357 358 357 357 357 356 357 356 357 357 356 356 356 356 357 356 356
349 348 351 351 352 354 356 358 358 358 357 357 357 360 358 357 356 356 355 354 355 354 355 354 354 354 354 360 358 357 356 356 355 355 355 355 355 354 353 356 355 356 359 356 356 356 355 355 355 355 354 355 354 354 355 355 356 354 355 356 353 350 352 353 353 353 354 355 357 359 356 357 357 356 356 356 357 357 356 356 355 356 356 357 355
348 348 350 351 352 352 355 357 357 358 357 357 357 358 358 358 356 359 357 357 356 354 354 355 355 354 355 357 361 356 355 356 355 354 355 355 356 354 353 354 355 356 360 357 357 355 353 353 355 353 353 353 352 353 353 352 353 354 353 353 354 350 351 352 352 353 354 354 357 360 358 357 355 355 357 357 357 356 356 356 355 356 356 356 355
346 347 349 350 351 352 354 356 356 357 356 357 356 358 358 358 358 358 356 360 355 355 354 355 355 355 354 356 361 355 355 356 355 355 355 356 356 355 355 355 356 357 359 358 356 354 354 353 354 352 352 352 351 353 353 351 352 352 352 352 353 350 350 351 352 352 353 354 356 360 359 359 356 355 356 356 357 357 356 356 355 355 356 355 355
347 348 348 349 351 352 352 354 355 356 356 356 356 357 358 357 358 358 357 359 356 355 354 354 355 355 353 354 358 356 355 356 356 356 355 355 356 356 357 355 356 356 357 354 357 354 353 352 352 353 352 351 350 356 352 351 350 351 350 350 352 350 351 351 351 352 353 355 357 360 360 357 357 355 356 356 355 356 356 356 355 355 356 355 355
347 347 348 348 351 350 351 353 354 356 355 355 355 356 357 357 357 357 357 357 357 357 356 353 354 355 355 355 356 359 356 357 356 356 355 355 355 355 355 355 355 355 357 354 357 355 352 351 351 353 352 353 353 353 352 350 349 349 351 348 351 350 350 351 351 352 352 355 357 359 361 359 358 356 356 357 356 355 355 355 354 355 355 355 355
346 346 348 349 350 349 350 352 353 355 354 353 355 354 355 356 356 355 355 355 356 355 354 353 356 355 356 355 355 355 360 356 357 356 355 355 355 355 354 354 355 356 358 356 356 358 354 353 354 353 353 353 353 350 352 350 350 349 349 347 349 349 350 351 350 351 353 355 357 358 360 359 357 357 357 357 357 356 356 356 355 355 355 355 354
347 347 348 349 348 348 348 350 352 354 352 352 353 353 353 353 353 352 354 355 355 355 353 353 354 356 356 357 356 355 359 356 357 357 360 355 355 354 354 356 355 357 358 358 358 356 355 355 354 357 352 351 350 349 352 350 349 350 348 345 349 349 350 350 351 351 352 354 356 358 359 361 357 356 356 357 356 357 357 356 355 355 356 356 355
346 347 348 348 349 349 349 348 350 352 352 351 351 351 351 351 352 351 353 353 352 353 354 353 355 356 357 356 356 355 357 357 357 356 358 355 354 354 354 354 356 358 358 358 356 353 353 351 353 352 358 354 351 349 351 351 348 346 345 345 348 350 350 350 350 351 353 354 356 357 358 360 361 360 359 357 357 357 356 356 356 356 356 356 356
346 346 346 348 349 347 348 347 350 350 353 351 351 349 349 350 350 349 350 351 351 351 352 353 353 355 356 356 356 356 357 357 357 356 356 355 354 354 354 354 356 359 358 357 354 354 352 350 353 350 350 350 351 353 354 352 346 346 345 347 347 349 350 349 350 351 353 354 355 356 358 359 359 359 360 360 358 357 357 357 356 356 356 356 355
345 346 347 348 348 347 347 345 347 348 350 351 350 348 348 348 348 351 348 349 351 350 351 352 353 354 356 355 356 356 357 357 357 356 356 354 354 353 354 355 357 359 357 357 355 354 353 352 353 351 349 349 353 350 348 346 346 345 345 347 349 351 348 349 349 350 352 354 355 356 357 358 358 358 360 359 360 360 359 358 357 357 357 357 357
345 345 346 347 347 346 348 344 345 346 349 350 350 347 346 345 346 348 347 348 348 350 351 351 353 354 355 354 355 355 357 355 357 357 356 355 354 354 354 355 358 359 358 357 356 357 354 353 353 357 350 349 350 349 347 348 343 342 344 346 348 350 348 349 349 351 352 353 353 355 356 357 358 360 360 359 360 360 359 359 358 358 358 358 358
346 346 346 347 347 346 346 345 345 346 348 349 349 347 345 344 345 346 352 347 347 349 351 351 351 353 354 354 354 355 358 355 356 356 355 355 355 354 355 356 359 357 358 357 358 357 356 354 353 355 353 352 350 346 345 344 341 342 345 346 347 347 347 349 352 355 352 352 353 354 355 356 358 358 359 359 358 359 359 359 358 358 358 358 359
346 346 346 347 347 347 347 346 345 345 347 348 349 348 345 343 344 345 347 348 348 349 350 350 351 353 353 354 354 355 358 354 355 356 355 356 355 355 356 357 358 356 357 356 356 358 357 354 354 354 355 351 350 346 343 342 341 342 342 342 344 344 346 351 354 350 351 351 352 354 354 356 357 358 358 358 358 358 358 358 358 359 359 358 358
346 346 346 346 346 346 346 346 345 345 346 347 348 347 345 344 341 342 344 347 348 349 349 349 351 352 354 354 355 354 356 355 354 355 355 356 355 355 356 358 357 357 356 355 354 354 356 355 353 350 350 353 348 345 343 343 340 341 345 341 342 344 347 350 349 349 351 351 353 356 353 354 355 356 357 357 358 357 357 357 358 358 358 358 358
345 345 345 345 346 345 346 344 344 345 345 345 346 346 344 343 342 340 340 343 346 348 349 349 351 352 354 354 355 355 355 355 355 355 354 358 356 356 356 357 357 357 357 356 356 355 355 355 356 358 350 348 347 342 339 340 339 339 339 337 341 345 349 351 347 346 348 349 351 354 353 354 354 354 356 357 357 356 356 356 356 357 357 358 358
343 344 344 344 345 346 345 344 344 344 345 345 346 346 346 345 343 341 341 342 345 347 347 348 351 353 355 355 355 355 355 355 357 355 356 356 356 355 355 356 356 356 357 358 356 359 360 357 354 352 351 349 346 343 338 339 334 334 336 335 339 340 348 347 344 345 346 347 348 351 352 351 352 353 354 355 355 355 355 355 356 356 356 356 357
344 343 344 344 345 345 345 345 344 344 345 346 346 346 347 347 346 345 344 344 347 349 349 350 353 353 354 355 355 355 355 356 358 357 355 356 356 355 355 355 356 357 358 356 357 355 356 356 353 352 350 350 352 350 340 338 334 334 335 337 330 333 341 340 342 343 343 346 347 348 350 350 351 353 353 353 353 353 354 354 354 354 355 355 355
343 343 343 343 344 345 344 345 344 344 345 346 348 348 348 348 348 348 348 347 347 351 351 351 352 353 353 355 355 355 355 355 358 358 357 357 356 355 354 354 355 357 357 355 354 354 354 354 353 352 350 347 345 346 346 340 337 337 332 329 329 329 327 333 334 339 341 344 344 346 348 349 350 351 351 351 351 352 353 354 353 353 354 354 355
342 343 343 343 344 344 345 345 344 344 345 348 348 348 349 348 348 349 350 349 350 349 347 346 349 352 352 353 354 355 355 355 357 358 359 356 356 355 354 354 354 355 357 355 354 354 355 355 354 353 350 348 344 344 346 340 339 342 335 328 328 327 327 330 330 338 339 341 342 344 347 348 347 349 350 350 351 352 352 352 353 353 353 354 354
342 343 344 344 344 344 345 345 345 345 345 346 348 349 348 346 345 344 343 343 343 343 343 344 344 347 350 353 355 355 355 355 355 357 358 358 356 355 354 353 354 355 357 356 355 354 354 354 355 354 351 346 348 343 343 350 340 343 337 338 337 333 330 332 332 332 342 343 341 342 344 346 346 347 349 349 349 350 353 352 352 352 353 353 353
342 344 344 344 345 345 345 345 345 345 346 346 349 350 347 347 346 345 345 344 343 344 347 348 347 347 350 351 353 356 356 355 355 356 357 358 357 355 354 354 354 355 358 356 355 354 354 355 355 355 353 353 347 345 342 341 343 343 344 342 346 344 336 334 331 329 330 339 339 337 339 342 343 343 345 347 347 348 350 352 352 352 353 353 353
343 344 344 345 344 345 345 345 346 347 346 347 348 350 347 347 346 345 346 345 344 345 346 348 349 350 348 350 352 354 356 356 355 355 357 357 358 356 355 354 354 355 358 356 355 355 355 356 357 356 355 354 348 347 343 338 341 339 344 342 344 342 337 335 334 335 334 331 336 336 335 338 340 341 343 344 345 347 349 350 351 352 353 353 353
343 343 344 344 345 345 346 346 346 347 347 347 348 349 349 348 347 346 345 347 347 347 349 349 348 351 347 349 351 353 355 356 356 355 355 356 359 357 356 355 355 355 359 357 356 356 356 356 356 355 355 353 351 349 347 342 337 339 340 339 341 340 338 338 338 340 337 331 330 329 335 337 337 338 340 341 344 346 348 349 351 353 353 354 353
343 345 345 345 345 346 346 346 346 347 347 347 349 348 349 350 347 347 345 346 347 347 348 347 347 348 347 348 350 351 353 354 355 355 355 356 357 358 357 356 355 355 359 358 357 356 356 356 356 356 356 355 352 352 349 345 340 339 339 340 338 338 338 338 336 335 332 337 334 332 332 332 333 339 340 339 341 343 345 348 349 350 352 353 353
343 344 344 345 345 345 345 345 346 348 349 348 348 348 348 349 348 347 347 346 346 346 345 345 345 346 346 347 349 350 352 353 354 355 355 355 356 358 357 356 357 358 360 358 358 357 357 357 357 356 356 356 353 351 352 349 343 340 336 339 339 338 337 336 335 334 335 332 332 331 330 331 332 333 340 338 342 341 345 347 346 347 350 352 353
Wind_Speed
1 2 1 7 9 11 11 14 15 15 16 16 16 16 16 16 16 16 16 16 16 15 15 15 15 14 14 14 14 14 13 13 13 12 12 12 12 12 12 12 12 11 11 11 12 12 12 12 11 10 10 10 10 12 13 9 11 11 11 11 11 11 12 11 10 10 10 11 11 11 9 9 10 9 7 10 11 12 14 14 13 10 8 11 13
5 2 1 2 10 12 14 15 15 16 16 16 16 16 15 15 15 15 14 14 14 14 14 14 14 14 14 14 14 14 13 13 13 12 12 12 12 12 12 11 11 11 11 11 12 12 12 11 11 10 10 10 11 13 13 12 12 12 12 12 11 10 10 11 7 9 10 13 12 11 9 10 10 8 8 10 11 11 12 14 14 8 7 13 14
4 3 2 4 10 12 15 15 15 16 16 16 16 16 16 15 15 15 15 14 14 14 14 14 14 14 14 14 14 14 13 13 13 12 12 12 11 11 11 12 11 11 11 10 11 12 11 10 10 10 10 11 11 13 14 14 13 14 13 13 13 11 12 12 11 13 12 12 13 12 9 9 8 8 7 10 13 10 12 14 13 12 9 14 13
6 2 2 5 11 11 14 15 15 15 15 15 16 16 16 16 15 15 15 15 15 15 15 14 15 14 15 14 14 14 13 13 12 12 12 11 11 11 11 11 11 11 10 10 10 11 11 10 9 9 10 11 11 12 13 13 13 13 12 11 11 12 12 11 12 12 12 12 12 9 4 4 6 7 9 12 14 11 11 12 12 14 14 13 14
6 3 2 3 8 10 13 15 15 15 15 15 15 15 15 15 15 15 15 14 14 14 14 14 14 14 14 14 13 13 13 13 12 11 11 11 11 11 11 11 10 11 10 10 9 10 10 9 9 9 10 10 11 13 11 12 12 12 11 11 12 12 12 12 12 12 13 13 11 7 4 4 4 9 12 12 12 12 11 11 13 14 13 13 13
6 4 2 3 3 8 12 14 15 15 15 15 14 14 14 15 15 15 15 14 14 14 14 14 14 14 14 13 13 13 12 12 11 11 11 11 10 10 10 10 10 10 10 10 9 9 9 9 9 9 9 10 11 11 11 12 11 11 12 12 12 11 12 12 12 12 13 12 10 5 5 5 6 6 13 12 12 12 12 13 13 13 13 14 14
7 4 3 3 2 7 11 13 14 14 14 14 14 14 14 14 14 14 14 14 13 14 14 14 14 14 13 13 13 13 12 12 11 11 11 10 10 10 10 9 9 9 9 8 9 9 9 9 9 8 8 10 11 10 10 11 11 11 11 11 11 11 11 12 12 12 12 7 4 4 4 5 6 4 12 12 13 12 12 13 14 14 14 13 13
6 4 5 4 3 8 11 12 14 14 14 14 13 13 13 13 13 13 13 13 13 13 13 13 13 13 12 12 12 12 11 11 11 11 10 10 9 9 9 9 8 8 9 8 7 8 8 9 8 8 9 10 10 10 10 11 11 11 10 10 11 11 11 12 12 12 11 5 5 4 4 4 6 5 10 11 14 7 13 13 13 13 14 14 14
6 7 6 5 5 11 12 13 14 15 14 14 13 13 13 12 13 12 12 12 12 12 12 12 12 13 13 12 11 11 11 10 10 10 10 10 10 9 7 7 7 8 7 7 7 6 7 9 8 8 8 9 10 11 10 10 11 10 10 10 10 11 11 11 11 11 6 4 5 5 5 5 5 5 10 11 13 13 14 12 13 14 14 14 13
7 7 5 5 6 12 13 14 14 15 15 14 14 13 13 13 13 13 12 12 12 12 12 12 12 12 13 11 10 10 10 10 10 9 10 10 10 8 7 6 7 7 6 6 6 6 6 8 8 8 9 12 11 9 9 10 11 12 9 8 9 10 10 11 11 9 5 5 5 5 6 7 5 4 9 11 11 12 12 11 8 10 11 13 13
8 6 5 5 7 13 14 15 15 15 14 14 14 13 13 13 13 13 12 12 12 12 12 13 11 11 11 12 11 10 10 9 10 10 10 10 11 9 8 7 7 7 7 6 6 7 6 8 8 8 9 11 9 10 10 9 10 10 10 8 9 9 10 10 9 4 5 5 5 5 6 9 4 3 8 9 10 10 10 11 13 13 13 14 13
9 7 6 5 10 14 14 15 15 15 14 14 13 13 13 13 13 12 12 12 12 12 12 12 13 12 11 11 11 11 11 10 10 10 9 10 10 9 8 7 6 6 7 7 7 7 8 8 8 8 9 10 9 9 8 9 10 9 9 9 9 9 10 10 5 4 5 5 5 5 5 4 3 7 11 10 10 11 7 11 13 12 13 13 13
10 8 6 5 6 13 14 15 15 14 14 13 14 13 13 13 12 12 12 12 12 12 11 11 12 11 10 10 11 10 10 9 9 9 9 8 9 8 8 8 7 6 7 8 8 8 8 8 8 8 8 11 9 8 9 8 8 9 8 9 9 9 9 10 5 5 5 5 4 5 5 4 4 7 9 11 11 11 8 11 12 12 12 13 13
10 9 7 6 6 12 15 15 14 14 14 14 13 13 13 12 12 11 11 11 11 11 10 10 11 11 11 10 9 10 9 9 9 9 9 8 8 8 8 7 7 6 5 9 9 9 9 8 8 8 8 10 8 8 9 8 8 9 9 9 9 9 9 7 7 5 5 4 4 4 5 3 4 4 8 9 12 11 8 10 11 12 12 12 12
11 11 8 6 6 7 14 15 14 14 14 14 13 13 12 12 11 11 11 11 10 10 10 10 10 10 9 12 10 10 9 9 9 9 9 8 8 7 6 6 8 9 7 9 9 9 8 8 8 8 8 9 8 8 8 7 7 8 8 8 9 9 9 4 4 4 4 4 4 4 4 4 5 5 7 10 11 10 10 8 9 12 12 12 12
11 10 8 6 6 6 7 13 15 14 14 13 13 12 12 12 11 11 11 11 10 10 10 10 10 9 9 10 9 10 9 8 8 9 8 7 7 8 7 7 8 8 6 8 8 8 8 8 8 8 8 8 8 9 8 6 6 7 8 8 8 9 9 6 3 4 3 3 3 4 3 4 6 6 6 9 11 9 9 8 9 12 12 12 12
10 8 8 7 6 5 6 7 10 15 13 13 12 12 12 12 11 11 11 11 11 10 10 10 10 10 10 9 9 9 9 9 8 9 10 8 8 8 7 8 9 8 7 7 8 8 8 8 8 7 8 8 8 8 8 8 6 6 7 8 8 9 9 7 3 3 3 3 3 3 3 3 7 7 6 8 10 11 11 10 10 10 11 11 11
10 8 7 7 6 5 6 6 7 7 6 10 12 12 11 11 11 11 11 11 10 10 9 10 9 9 9 9 9 9 9 8 8 8 8 7 7 8 6 6 8 8 8 7 7 7 7 8 8 7 7 7 7 7 8 7 6 6 7 8 7 8 9 7 3 2 3 4 3 3 2 8 8 9 8 8 8 9 9 8 7 9 9 11 11
9 8 7 7 6 5 6 5 5 5 5 4 4 8 12 12 11 11 11 11 10 9 9 9 9 9 9 8 8 8 8 8 8 7 7 7 7 8 7 6 6 7 7 7 7 7 7 7 7 7 6 6 6 6 7 7 6 6 7 7 7 7 9 5 3 2 3 2 2 3 3 6 6 8 9 9 8 8 10 12 7 8 10 9 11
8 8 7 6 5 5 5 5 5 5 5 4 4 4 9 12 12 12 11 11 10 9 9 9 9 8 9 8 9 6 7 6 8 6 7 7 8 8 5 6 6 5 6 6 7 6 7 7 7 6 6 5 6 6 6 6 6 6 7 7 5 8 4 2 3 2 2 2 2 2 3 5 7 8 9 9 8 7 8 8 8 8 9 5 8
9 8 7 6 5 6 5 5 5 5 5 4 4 4 5 10 8 11 11 11 10 10 9 9 8 8 7 8 6 5 4 3 4 3 7 4 6 8 7 6 7 6 6 5 5 5 6 7 6 6 6 5 5 6 6 5 6 6 7 7 7 5 3 3 2 2 1 2 2 2 3 5 7 8 8 8 8 8 7 7 10 9 8 7 7
9 8 7 6 5 5 6 6 5 6 5 4 3 3 4 6 3 6 4 5 7 8 5 4 4 2 7 5 4 4 4 4 3 4 4 4 4 7 7 8 7 6 5 5 6 4 4 6 6 6 5 5 6 4 3 3 5 5 5 8 5 3 3 3 3 2 2 1 1 1 2 5 6 7 8 8 8 7 7 7 9 11 7 5 6
9 8 7 7 5 5 5 6 6 5 6 4 4 3 4 3 3 4 4 5 4 3 4 4 3 4 5 4 4 4 4 4 3 4 3 4 4 6 6 6 7 3 4 6 6 4 4 5 5 5 6 6 4 3 3 3 4 4 6 4 3 3 3 3 3 2 2 1 0 1 1 5 5 6 7 7 7 7 7 7 7 9 9 6 7
11 9 8 6 6 6 6 6 6 6 6 4 4 4 4 4 4 3 4 4 4 4 4 4 4 4 4 4 4 4 4 3 3 5 4 3 2 4 7 7 6 6 5 1 2 2 4 4 5 6 5 2 2 2 2 2 2 2 2 3 3 3 3 2 2 2 2 2 0 2 2 4 4 5 7 7 7 7 7 6 6 7 8 9 8
8 8 7 7 7 7 6 6 7 7 5 4 5 4 4 4 3 3 4 4 4 4 4 4 4 4 4 4 4 3 3 2 2 2 3 3 3 3 3 3 3 3 2 2 2 3 2 2 2 3 2 2 2 2 1 1 1 1 1 2 2 3 3 2 2 2 2 2 2 3 5 5 5 4 6 7 7 7 6 5 5 5 6 6 6
8 8 9 8 7 7 7 6 7 7 6 5 5 5 5 4 4 3 4 4 4 4 3 3 3 3 3 3 3 3 2 2 2 3 3 3 2 2 2 2 3 2 1 1 1 2 1 2 2 3 2 1 2 2 2 2 2 1 2 2 2 3 3 3 3 3 2 2 3 4 6 5 6 4 5 6 7 7 6 5 5 5 5 5 5
9 8 8 7 7 7 7 8 8 7 7 4 4 4 4 4 4 3 4 4 3 4 3 3 3 3 3 2 3 2 2 2 2 2 3 2 3 2 1 1 1 1 1 1 1 1 1 1 1 2 2 2 2 2 1 2 2 2 2 2 3 3 3 3 3 3 3 2 3 6 5 6 6 7 4 6 6 7 6 5 4 5 6 6 4
8 9 8 8 8 9 8 9 8 9 7 5 5 4 4 5 4 4 4 4 4 4 4 3 2 3 2 2 2 3 3 2 2 2 3 2 2 1 1 0 0 2 1 0 1 1 1 1 1 2 2 2 2 2 2 2 1 2 3 2 3 3 3 3 3 3 3 3 3 6 7 6 4 4 6 5 7 6 6 5 5 5 5 5 4
10 10 9 9 9 8 8 9 10 10 8 7 6 5 5 4 4 4 4 5 4 4 4 3 3 2 2 2 2 3 3 3 3 3 2 3 2 2 1 1 1 2 1 1 1 2 1 1 1 2 2 2 2 1 1 1 1 1 2 3 3 4 3 3 3 3 3 3 3 5 8 7 5 8 5 5 6 7 7 6 6 5 5 5 5
10 9 9 9 8 8 10 10 9 10 9 7 5 7 6 5 7 7 4 5 4 4 4 3 3 3 3 3 3 3 3 3 3 3 3 3 2 2 2 2 2 1 1 2 1 1 2 1 1 2 3 2 2 2 1 1 1 1 1 3 4 4 4 4 4 4 3 3 3 3 8 6 5 2 6 5 6 5 6 6 6 6 5 5 4
10 10 9 9 8 9 9 9 8 9 7 8 6 7 7 8 7 7 6 5 5 4 4 4 3 3 3 4 3 3 3 3 3 3 3 3 3 2 3 2 2 2 1 2 1 2 1 1 1 2 2 2 2 1 1 1 2 2 1 2 3 3 3 3 3 4 4 3 3 2 3 9 7 7 6 7 6 4 4 5 5 5 6 6 5
12 12 9 8 9 10 10 9 9 9 8 8 7 7 7 8 7 6 5 5 4 5 4 4 4 4 3 4 4 4 3 4 4 4 4 3 3 3 2 2 3 1 1 2 2 2 1 0 1 1 1 1 2 1 1 1 3 3 1 1 3 3 3 3 4 4 3 3 3 2 1 1 5 6 8 7 6 6 6 5 4 5 5 6 6
9 11 10 10 11 11 10 10 9 9 9 9 7 7 6 6 6 6 6 5 4 4 4 4 4 4 4 4 4 5 4 5 4 4 4 3 3 3 3 3 2 1 1 2 1 1 1 1 1 1 1 1 2 2 1 1 2 3 1 1 3 3 3 3 3 4 4 3 3 2 1 1 4 5 7 6 5 5 5 6 6 5 6 5 6
10 9 10 11 9 8 8 8 9 10 10 8 7 6 6 6 6 5 6 5 4 4 5 4 4 4 4 4 5 5 5 4 5 4 3 3 3 3 3 3 2 1 1 1 1 1 1 0 1 1 2 2 2 2 3 3 2 3 3 1 2 3 3 4 3 3 3 3 3 2 1 1 1 2 2 6 5 6 5 5 4 5 5 7 6
9 10 13 12 11 10 8 8 9 10 10 9 9 7 6 6 6 5 5 5 5 5 4 4 4 4 4 4 5 5 5 5 5 5 4 4 3 3 3 3 2 1 1 1 1 1 1 1 1 2 2 2 2 3 2 2 2 3 3 1 2 3 3 3 3 3 3 4 5 2 2 1 1 1 1 2 4 5 5 5 6 5 6 5 8
14 13 11 11 12 11 10 10 10 11 10 10 8 8 7 6 6 5 5 5 5 5 5 4 4 4 4 4 5 5 5 5 5 5 4 4 4 4 4 2 2 1 1 1 1 2 2 1 1 2 3 3 3 2 1 1 1 1 1 1 1 3 3 3 3 3 3 4 5 4 2 1 1 1 3 1 1 2 3 5 7 6 6 6 6
13 13 13 13 12 12 11 11 12 12 11 10 9 7 6 7 6 6 6 5 5 5 4 4 4 4 4 5 5 5 5 5 5 5 5 5 4 4 3 3 2 2 2 1 1 2 2 3 2 1 1 2 2 1 0 1 2 1 1 2 1 3 4 3 3 3 3 3 4 4 4 4 2 4 2 1 1 1 2 4 6 7 7 7 6
13 13 13 14 14 12 12 12 10 11 10 9 9 8 6 6 5 5 4 5 6 5 4 4 5 5 5 5 6 5 5 5 6 5 5 4 4 4 3 3 3 2 2 2 2 2 1 1 2 2 0 0 1 1 3 1 2 1 2 2 3 4 3 3 3 3 3 3 3 4 4 3 4 4 3 2 2 1 2 4 6 7 8 7 6
12 13 13 12 11 11 10 11 11 11 10 9 7 6 5 4 3 4 5 5 5 5 5 5 5 5 5 6 6 6 5 6 6 6 5 4 4 4 3 3 3 3 2 2 2 2 1 1 1 1 1 0 1 3 2 3 3 3 3 4 4 4 2 2 2 3 3 3 3 3 3 4 4 4 4 4 2 2 2 2 2 3 4 6 7
12 12 13 12 12 11 10 10 10 11 9 8 7 6 5 6 6 4 5 6 6 5 5 6 5 5 5 6 6 6 5 6 6 5 5 5 5 4 4 3 3 3 4 3 3 2 3 2 2 3 3 2 2 1 3 4 4 5 4 4 3 3 3 2 2 1 1 2 2 2 2 2 4 4 5 5 4 4 4 3 3 3 3 3 5
13 14 14 14 14 13 12 13 11 10 10 9 9 9 9 7 6 8 9 7 7 6 6 6 5 5 6 6 6 6 6 6 5 6 6 5 4 4 4 4 4 4 4 4 4 4 2 2 1 1 2 1 2 1 2 3 5 4 3 4 4 2 1 2 1 1 0 0 1 1 2 2 2 4 5 4 4 5 5 5 5 4 3 2 3
15 15 15 15 14 14 14 13 10 11 12 12 11 10 9 10 9 9 7 7 7 7 7 5 6 5 5 6 6 6 6 6 6 6 5 6 5 4 4 5 4 4 3 2 2 2 2 2 2 1 2 1 1 2 3 3 3 2 3 2 4 3 2 1 2 1 1 1 1 2 2 3 3 3 2 3 4 5 5 5 5 5 5 4 4
16 16 16 15 15 14 13 12 11 12 12 12 10 11 9 8 8 5 7 5 4 5 4 4 4 5 6 6 6 6 7 6 6 6 5 5 5 5 5 4 5 4 3 3 3 3 3 3 3 3 1 1 1 0 3 1 3 2 2 4 1 3 3 3 1 1 1 2 2 2 3 3 4 3 2 2 2 3 4 5 5 5 5 5 5
15 15 16 17 14 14 13 13 12 12 11 12 12 11 10 8 7 4 4 4 3 3 4 3 4 5 7 6 6 7 7 6 6 6 5 5 6 6 4 4 4 4 5 5 4 4 3 3 3 2 3 1 1 1 1 1 3 6 2 1 1 0 3 2 3 4 1 1 2 3 3 3 3 2 1 4 4 3 3 3 5 5 5 5 5
16 16 16 16 12 16 15 14 13 13 11 12 13 10 8 6 5 3 4 3 3 4 4 4 6 6 5 6 7 6 6 6 6 6 6 6 5 5 5 5 5 5 4 5 5 5 5 4 4 3 4 3 2 1 1 0 4 1 7 3 2 1 3 3 1 3 2 2 2 3 3 4 3 2 3 4 3 3 3 3 3 4 5 5 4
17 17 16 16 15 14 15 14 12 12 12 13 12 10 10 10 8 8 7 6 6 6 7 9 7 8 8 5 5 6 6 6 6 6 6 5 6 6 5 5 5 5 5 5 4 3 4 4 4 4 4 2 2 3 1 1 2 2 2 3 2 1 2 1 1 3 2 1 3 2 3 3 2 3 3 4 4 3 3 3 3 3 3 3 4
18 15 15 16 16 15 15 15 13 11 12 12 13 11 10 9 11 11 10 10 10 9 8 8 8 7 5 7 6 5 6 6 6 6 6 6 6 6 6 6 5 5 4 4 5 5 4 5 3 4 4 3 3 3 4 2 2 2 3 1 1 1 3 4 3 1 2 2 1 1 2 3 3 3 4 4 4 3 3 3 3 3 3 2 3
17 15 15 15 17 16 15 15 12 12 11 11 13 12 12 11 11 11 10 9 9 9 8 7 5 5 6 6 5 5 6 6 6 6 7 6 6 6 6 6 5 5 5 5 5 4 3 2 3 3 2 3 4 4 4 3 4 3 2 3 2 1 2 2 2 4 3 1 3 1 1 1 3 4 4 5 4 4 4 4 4 3 3 3 3
14 16 16 16 16 15 15 14 14 13 12 13 13 13 12 12 12 10 10 8 8 7 5 4 5 5 6 5 6 5 5 6 6 7 7 7 6 6 6 6 6 5 5 4 4 4 5 5 4 3 4 3 4 3 3 4 3 4 2 2 0 1 2 2 1 2 2 2 3 2 4 2 1 4 4 4 4 4 4 4 4 4 3 4 3
17 15 14 13 13 13 14 15 15 13 12 14 14 14 14 12 11 11 12 9 8 6 5 6 6 6 6 6 6 5 6 6 6 6 6 7 7 6 6 7 7 5 5 5 5 5 5 5 5 5 4 5 3 4 5 4 4 3 3 3 3 2 1 1 1 2 2 1 4 3 3 4 4 4 2 4 5 5 4 4 4 5 4 4 3
15 15 14 15 14 15 15 16 16 13 13 15 15 15 14 12 12 12 13 12 10 8 7 6 6 6 7 7 7 6 6 7 5 6 6 7 7 6 6 6 5 5 5 5 5 5 5 5 4 4 4 5 4 5 4 3 3 3 3 4 5 5 5 5 4 3 4 3 1 4 3 3 4 5 3 2 4 4 4 4 5 5 4 4 3
Wind_Direction
258 164 171 162 155 141 145 125 118 112 112 112 111 110 110 111 114 115 116 116 117 117 117 118 119 118 118 118 118 118 118 116 116 115 117 118 117 115 113 110 105 102 100 96 91 90 89 87 87 88 89 92 93 92 93 104 106 105 98 92 94 95 101 101 106 107 108 108 97 92 92 105 98 103 111 102 106 111 117 113 111 102 102 104 103
159 166 142 146 146 155 138 123 119 118 115 114 113 113 112 111 111 112 113 114 114 115 117 118 120 121 122 122 121 120 118 117 119 119 119 118 118 116 112 106 102 99 95 93 91 89 89 89 90 92 91 95 98 101 110 103 103 104 105 103 105 101 104 99 99 106 99 93 89 92 92 100 107 113 118 115 110 103 104 102 100 102 102 103 103
118 135 155 159 163 169 130 126 121 119 118 116 116 116 117 118 118 119 119 119 119 120 122 124 124 123 124 125 122 121 121 122 121 121 120 119 117 115 111 104 101 98 94 93 93 92 90 88 89 90 94 96 101 102 105 110 105 103 102 104 106 114 109 113 106 83 78 87 100 101 100 96 95 95 107 106 98 98 112 108 106 105 104 104 103
133 154 132 178 176 148 132 127 123 120 119 117 117 117 118 120 121 121 122 123 123 124 125 126 126 125 124 123 124 124 123 121 120 120 120 119 117 113 110 107 104 101 99 95 95 97 96 97 94 90 94 99 100 99 102 100 103 100 101 97 99 96 94 89 89 92 90 89 86 79 83 66 83 99 89 101 106 107 102 107 111 109 106 103 98
137 145 160 190 161 132 132 128 124 122 121 120 118 117 118 118 118 119 119 120 123 122 123 123 124 122 123 124 125 123 123 121 121 121 119 118 116 116 114 111 107 104 104 98 94 95 98 97 97 100 97 98 99 98 98 99 97 99 99 102 98 95 93 92 91 93 91 85 72 69 70 78 65 100 101 92 102 105 109 106 104 106 104 101 100
143 146 173 162 175 136 129 128 126 124 120 119 117 118 118 119 119 118 119 120 122 123 123 123 124 123 124 124 124 123 122 122 121 120 119 119 118 117 116 113 109 106 106 112 111 103 99 99 98 98 98 105 100 96 100 99 100 100 98 93 91 92 93 92 90 87 80 69 61 53 54 59 76 77 103 114 110 110 111 108 107 105 102 100 101
138 141 153 167 164 134 129 128 126 123 120 119 120 118 118 118 118 117 118 119 121 122 122 122 121 122 125 126 125 124 124 124 121 119 119 119 118 116 115 112 110 108 104 94 100 104 103 101 100 97 99 96 94 100 98 100 96 96 96 95 92 91 93 93 89 82 72 60 57 57 61 68 88 94 106 115 119 121 125 118 110 106 104 102 101
127 137 146 178 139 135 130 128 126 124 124 124 122 120 120 119 116 115 116 121 122 119 118 117 120 121 120 124 125 124 124 122 123 123 119 114 113 111 107 109 108 106 98 99 94 93 98 98 96 96 98 100 102 98 101 101 101 97 95 95 95 95 95 93 91 83 69 59 48 59 63 65 80 91 106 112 119 133 116 112 110 108 107 106 101
133 144 152 160 146 135 132 131 130 129 130 128 126 124 122 120 118 118 121 123 120 118 117 118 122 122 122 117 118 118 114 118 114 117 117 112 104 96 97 98 99 101 103 100 94 88 96 98 95 95 97 99 96 104 104 97 98 91 79 92 98 98 94 91 88 74 60 48 47 54 63 70 77 88 113 128 119 123 115 111 109 107 105 104 103
138 145 152 145 143 139 136 135 134 135 134 133 131 129 128 123 124 126 125 122 121 121 121 120 120 118 113 117 113 120 124 124 124 120 113 110 106 106 105 106 103 105 104 98 111 108 100 100 102 101 98 90 91 83 91 105 105 99 99 89 92 97 98 94 83 72 61 46 35 40 87 91 84 86 116 116 116 116 115 108 106 109 107 105 103
139 141 146 142 148 142 141 138 138 138 136 135 134 130 130 129 130 128 127 126 125 125 124 121 119 115 124 126 131 124 121 123 125 118 116 116 113 119 117 113 108 113 116 123 115 113 112 105 104 104 102 105 105 107 105 98 92 97 99 94 94 98 96 89 74 56 53 50 47 50 76 89 85 119 110 114 114 98 106 113 108 105 105 105 104
143 141 143 144 149 146 143 140 141 139 138 137 134 133 133 133 132 130 130 131 129 128 127 128 132 129 127 125 122 126 125 127 117 120 119 115 115 117 119 118 119 114 112 116 123 125 114 106 107 107 105 106 99 93 91 99 110 110 108 110 104 98 96 87 71 63 56 54 54 56 46 65 101 112 122 115 104 112 120 110 105 107 108 105 102
144 143 140 144 147 150 144 142 142 141 139 138 137 137 137 135 134 134 135 133 131 128 127 127 122 121 128 120 122 123 123 124 122 123 118 117 115 123 118 118 118 118 125 127 114 104 101 108 109 112 114 97 102 104 96 97 105 112 113 111 109 106 100 86 69 68 61 55 52 58 52 42 84 110 115 119 118 116 128 114 108 109 104 103 102
140 144 142 144 152 151 145 145 144 142 141 139 140 140 139 137 137 137 137 134 130 127 127 129 121 128 126 117 126 132 131 129 131 129 125 125 125 122 121 123 123 122 127 118 119 121 122 118 115 112 108 109 105 102 104 105 110 113 124 115 111 108 101 89 81 69 67 62 69 63 62 62 81 89 107 108 115 120 117 103 108 107 106 104 105
142 144 145 143 151 149 148 147 145 143 143 141 143 142 141 141 140 140 137 133 129 129 129 127 125 126 127 135 145 131 133 134 132 129 126 123 124 124 123 138 135 131 144 114 113 111 112 114 116 112 109 106 106 95 90 90 103 112 116 117 110 105 99 80 78 68 66 67 60 67 63 71 88 94 105 103 96 100 101 99 106 112 110 108 108
142 142 139 140 145 148 146 149 147 145 145 146 145 144 143 144 142 141 138 134 131 130 132 131 131 134 140 136 136 130 134 132 131 125 122 127 137 139 154 136 107 100 112 120 114 113 112 114 116 116 113 113 116 110 103 103 105 118 114 112 111 112 109 97 77 70 67 65 70 74 81 110 113 94 92 110 117 121 116 116 135 116 115 114 113
144 139 135 138 140 141 144 144 149 148 147 147 147 146 146 146 144 143 141 136 137 141 143 141 141 145 139 135 132 134 135 132 129 130 138 149 140 132 115 117 124 127 122 114 121 119 117 115 116 119 121 124 121 116 114 111 111 110 114 115 119 120 114 102 78 79 83 79 67 54 73 102 116 119 125 113 119 127 133 139 119 116 117 117 115
143 141 136 137 137 138 139 142 146 142 145 149 150 149 149 148 149 146 144 142 145 147 146 142 139 140 138 139 137 134 131 130 129 131 132 128 124 110 114 111 117 125 125 124 122 120 117 114 114 118 123 122 123 118 111 109 108 117 112 112 123 125 123 113 92 89 92 88 61 67 59 105 113 115 117 108 107 110 116 107 111 114 118 120 119
144 141 135 137 141 138 138 138 131 133 133 128 140 155 154 154 152 151 149 149 150 149 147 142 138 140 142 138 139 136 136 136 140 139 134 128 122 110 114 116 111 119 121 119 116 117 114 112 112 116 118 120 120 119 119 119 122 124 126 129 130 128 123 109 100 74 67 74 59 54 78 92 101 103 101 105 109 111 118 130 141 131 123 122 118
146 145 139 139 142 136 132 130 128 126 123 121 131 149 159 158 160 154 151 151 154 150 148 145 146 145 144 139 139 136 137 140 142 138 134 128 124 108 129 114 108 98 105 110 112 111 113 113 113 111 112 116 117 121 122 120 122 124 121 117 126 103 94 97 99 80 71 79 77 49 60 94 104 105 105 104 105 104 109 113 121 109 87 74 117
153 148 143 145 141 139 134 130 131 126 124 121 125 134 155 159 163 149 154 153 153 151 150 152 149 146 141 139 106 73 67 70 96 107 131 117 122 127 127 112 118 121 103 95 94 100 116 120 118 116 113 109 117 120 121 114 114 119 125 135 120 94 102 99 98 100 83 64 70 30 47 104 110 110 110 107 101 102 104 120 117 102 114 131 96
156 152 149 147 143 144 142 135 131 133 127 126 133 139 143 158 140 132 153 149 150 148 139 110 123 130 132 90 90 86 75 81 80 101 77 123 122 127 130 136 125 119 127 129 115 124 124 118 121 117 110 111 86 41 51 91 113 124 116 97 91 103 103 102 106 114 93 62 64 9 29 122 120 116 112 109 105 103 101 105 116 131 132 119 122
159 154 152 154 152 146 144 142 140 137 130 131 135 137 133 114 112 113 134 133 122 105 95 102 67 95 95 99 85 92 92 77 87 115 93 114 130 129 125 132 133 151 135 121 141 149 134 114 115 119 108 91 72 56 52 38 29 23 84 85 103 107 105 111 118 123 111 74 62 303 99 134 131 124 118 116 110 103 100 101 114 128 138 144 146
161 161 156 153 152 158 153 149 146 142 138 137 132 120 113 115 110 116 114 116 114 104 101 105 100 103 101 95 95 100 93 89 138 150 138 83 43 137 153 147 148 148 124 64 31 51 47 54 60 72 89 83 85 76 69 22 42 64 62 93 118 122 122 129 143 137 133 152 157 233 168 156 142 141 130 128 121 111 104 103 109 129 143 161 158
159 157 155 163 164 162 154 152 152 151 140 145 143 132 120 122 118 125 117 107 105 106 112 110 113 108 105 100 104 106 104 75 16 64 93 91 69 46 54 77 84 59 79 57 25 18 33 35 27 48 55 102 112 110 87 75 84 108 115 116 124 134 130 138 138 143 155 148 175 215 184 176 161 164 148 138 129 122 114 109 109 117 133 148 150
155 165 167 163 169 167 160 156 158 159 154 156 151 154 146 139 142 155 125 100 105 123 119 128 117 112 116 105 101 103 95 76 42 101 99 106 96 54 70 76 76 89 82 73 51 37 47 49 68 76 58 70 115 133 146 151 153 147 152 146 143 154 147 153 153 159 159 164 188 211 204 186 185 168 162 145 137 132 127 124 120 116 123 132 151
165 168 165 166 164 169 163 162 165 162 159 147 149 149 146 144 141 158 138 121 115 143 158 138 137 128 127 128 127 130 117 86 97 121 139 113 131 104 127 77 107 125 140 152 111 101 90 79 69 72 75 67 86 96 126 138 161 154 163 166 165 173 164 154 163 159 167 170 197 199 201 212 191 173 178 162 149 143 144 141 140 124 124 140 144
165 165 169 167 170 174 167 166 169 169 164 158 158 153 144 157 161 174 156 161 144 169 183 171 160 155 147 169 140 141 150 142 153 161 166 129 159 130 73 77 7 264 228 89 46 48 74 68 77 49 59 78 64 64 97 103 132 164 165 183 180 179 180 164 158 166 165 173 199 200 196 219 192 201 188 185 162 157 154 157 150 144 131 133 139
171 170 169 169 176 172 169 170 171 174 173 169 170 167 162 157 169 178 170 178 168 180 181 168 182 175 164 179 172 157 157 161 171 184 149 170 156 158 149 201 248 269 296 324 322 308 337 59 62 72 57 52 83 77 90 73 36 147 171 181 181 175 182 166 161 156 165 176 188 204 201 204 180 219 188 197 192 168 166 168 166 160 155 146 148
178 169 169 175 172 172 173 174 172 174 175 173 174 174 175 171 186 194 179 189 184 175 167 187 187 175 195 188 204 169 183 174 176 165 162 182 188 184 200 205 210 238 204 254 283 266 261 59 43 73 86 55 61 48 59 20 331 65 173 187 189 180 172 168 158 159 165 171 192 207 203 194 202 197 230 206 212 191 182 177 175 172 170 166 162
171 176 176 175 173 173 179 175 173 172 165 177 177 182 182 191 192 195 190 197 187 176 178 187 188 188 199 190 199 195 182 184 173 172 179 176 189 196 223 217 234 221 201 248 250 234 283 117 64 37 63 101 86 32 106 337 313 314 90 176 171 165 164 155 155 151 160 172 186 205 214 201 193 184 226 221 213 174 216 179 206 190 177 182 181
179 182 179 169 173 182 178 176 174 172 172 180 180 180 187 191 190 191 194 196 182 188 184 185 200 198 192 193 197 202 196 191 179 175 182 177 188 203 219 213 240 222 200 216 236 228 179 178 125 138 153 87 90 57 359 15 329 305 9 131 145 156 156 151 155 152 155 163 175 195 219 174 212 202 221 221 211 192 223 201 204 211 208 194 197
186 180 174 173 179 180 179 180 175 177 177 181 183 185 180 186 185 190 196 190 194 186 191 197 201 197 191 194 199 200 205 193 194 184 190 179 179 199 215 228 229 209 202 196 219 326 14 34 56 122 177 99 68 29 10 347 318 314 336 122 143 151 141 137 144 149 157 161 167 177 195 162 183 225 231 229 216 219 217 218 202 218 230 220 215
176 177 173 182 180 180 180 177 180 182 183 184 182 182 186 187 192 190 194 185 192 194 204 197 200 195 192 197 202 204 206 198 187 187 175 171 182 200 210 234 220 187 171 139 185 272 281 12 26 78 42 51 35 9 20 358 343 343 359 79 130 138 132 138 144 145 146 154 166 166 178 138 132 193 218 248 238 236 231 232 236 227 224 240 249
174 179 184 180 179 179 177 182 184 186 184 186 187 190 187 186 185 192 193 188 189 199 201 196 198 197 189 201 202 205 207 197 190 177 180 169 181 201 219 228 195 157 145 148 194 241 248 318 14 42 29 40 50 34 21 304 338 341 346 16 114 115 124 122 120 134 148 156 169 171 169 160 135 159 228 219 229 254 258 248 243 233 240 234 234
182 182 179 175 182 180 182 181 183 188 189 188 189 188 189 188 189 193 191 189 192 198 204 200 192 189 193 202 203 205 204 196 184 176 177 179 179 197 219 200 190 155 160 153 190 265 305 351 40 70 360 3 38 29 337 331 26 2 17 57 99 120 107 107 123 137 142 155 173 178 172 167 175 199 213 207 244 250 254 234 242 243 241 247 254
181 179 180 179 183 182 181 182 185 188 189 190 189 187 185 189 191 194 193 190 196 205 206 198 189 185 194 207 204 203 204 192 183 182 182 180 183 194 192 184 167 177 167 151 257 260 314 325 27 17 119 358 21 81 275 42 55 17 70 92 85 99 97 109 120 136 138 147 170 180 186 198 216 229 238 229 257 257 290 272 245 248 248 247 252
186 185 182 181 184 181 183 186 186 188 187 189 190 187 188 186 190 195 191 198 206 205 204 192 200 196 188 209 204 202 197 186 182 182 191 184 183 184 169 162 158 160 158 174 243 293 309 337 339 347 152 89 37 163 193 72 67 47 49 57 39 63 77 103 137 143 147 154 177 189 196 200 217 231 241 244 228 235 261 276 264 251 250 250 256
187 185 184 183 182 183 181 186 183 185 187 186 185 180 173 176 177 190 206 212 214 211 202 201 205 194 195 203 197 199 193 182 180 181 185 185 175 176 163 156 145 162 161 171 221 267 270 247 261 44 29 114 196 226 161 100 76 65 56 36 48 50 58 112 111 127 161 163 173 182 187 211 217 225 235 232 224 225 237 247 269 275 269 277 266
185 184 183 183 185 184 184 184 186 183 179 177 175 177 173 184 192 194 213 220 216 209 206 211 198 200 203 195 195 196 191 178 180 183 186 182 174 176 158 146 148 152 170 178 207 202 218 234 230 140 86 67 33 36 97 108 70 56 50 44 53 73 65 69 68 111 157 168 175 170 194 194 220 230 233 234 236 243 239 234 245 251 259 270 275
187 184 184 186 186 186 182 188 186 178 177 178 183 183 186 189 196 202 209 209 210 207 210 210 201 202 199 194 194 193 190 180 176 178 189 188 177 158 148 153 149 161 175 204 192 197 207 180 106 95 137 94 56 7 71 99 97 46 19 39 25 13 90 114 91 44 172 196 187 194 179 205 213 230 233 231 235 238 237 240 240 241 245 248 262
191 186 188 188 188 187 189 189 180 181 185 185 186 188 193 194 190 199 198 201 200 203 215 208 207 199 194 196 194 189 185 185 175 181 184 183 167 165 169 164 158 171 185 183 184 196 184 156 133 96 17 142 207 178 186 92 35 121 111 359 355 346 35 98 155 202 185 214 221 224 208 229 237 232 212 220 229 232 235 234 236 239 240 241 249
188 189 191 188 188 189 192 186 185 184 188 187 186 193 194 195 192 192 191 199 208 209 205 192 191 195 196 197 194 189 182 186 176 176 179 185 175 166 177 162 164 165 164 186 187 205 196 193 175 183 159 22 65 151 206 41 127 103 99 77 7 0 330 357 327 179 215 194 194 231 223 237 245 242 233 231 230 224 229 235 231 233 235 237 241
190 192 191 190 188 191 190 187 188 188 187 188 191 194 191 189 191 172 172 176 180 153 163 160 194 194 206 197 200 189 183 180 174 172 179 183 174 177 160 168 169 174 171 177 190 206 189 188 165 183 131 120 1 358 142 162 139 132 58 21 212 108 352 309 313 304 337 231 211 225 220 239 247 248 218 238 235 236 233 228 237 233 237 237 238
194 194 191 190 190 190 190 187 187 189 189 189 189 182 176 174 165 134 131 132 92 138 150 188 197 204 202 199 203 185 180 179 174 177 178 183 179 171 169 168 167 178 170 183 188 199 196 182 169 165 169 161 182 273 7 66 177 48 138 114 37 14 234 251 353 285 353 303 257 232 237 234 238 231 231 242 243 238 238 231 234 242 241 240 237
196 196 191 189 188 189 188 188 187 189 190 188 183 176 183 177 169 172 171 181 190 170 191 200 196 200 208 183 188 185 177 174 174 181 188 173 180 179 171 165 173 176 188 186 177 168 190 187 186 176 176 177 158 143 335 65 229 147 115 128 161 169 196 249 122 271 324 321 313 279 248 253 241 247 248 249 242 241 232 242 228 234 232 238 244
198 191 188 190 190 187 188 187 187 189 188 185 180 180 182 183 185 189 192 191 194 203 202 201 200 198 173 183 188 179 183 175 173 182 187 188 182 176 176 178 175 178 182 170 181 192 188 196 167 174 184 151 138 166 191 226 28 242 209 152 62 315 150 133 218 56 337 315 339 319 275 245 244 244 250 258 266 272 262 261 254 251 244 237 240
191 186 189 189 191 189 186 186 187 187 186 182 182 182 183 186 189 195 195 198 203 209 203 204 192 160 179 182 177 185 182 186 183 185 188 188 180 180 177 176 178 181 179 188 193 189 173 189 189 179 141 172 177 187 199 184 170 239 229 245 290 97 92 58 141 175 164 205 294 307 252 279 234 237 244 257 258 259 270 264 265 261 255 241 233
187 190 191 191 190 187 186 186 187 185 184 182 183 187 188 187 189 191 197 202 203 206 184 178 170 162 170 174 183 183 185 194 196 190 191 190 186 185 179 178 181 184 189 186 192 178 186 176 178 172 185 182 188 182 154 186 188 218 136 262 55 21 34 19 91 97 138 151 279 273 283 326 242 250 239 241 252 249 248 256 260 260 247 247 230
195 192 190 187 188 186 187 187 190 186 182 183 185 188 189 186 189 190 196 198 197 188 170 180 176 162 177 184 182 179 189 197 203 203 197 194 193 183 182 187 191 184 189 188 176 181 188 190 189 192 182 189 180 187 193 186 191 203 211 164 158 71 38 44 44 92 33 117 217 239 238 254 275 274 224 233 234 238 238 240 249 252 251 248 240
193 189 188 188 187 187 188 189 190 185 183 185 185 189 189 188 190 191 195 197 192 180 174 181 169 170 186 189 186 188 190 200 195 206 202 195 198 189 186 192 187 185 186 179 189 190 190 192 191 187 191 189 185 187 203 188 180 185 192 186 195 185 186 194 208 201 196 193 215 264 253 221 244 291 276 264 245 240 232 230 241 247 245 250 245